Regional Weather Roundup
Issued by NWS Raleigh/Durham, NC

Home | Current Version | Previous Version | Text Only | Print | Product List | Glossary On
Versions: 1 2 3 4 5 6 7 8 9 10 11 12 13 14 15 16 17 18 19 20 21 22 23 24 25 26 27 28 29 30 31 32 33 34 35 36 37 38 39 40 41 42 43 44 45 46 47 48 49 50
543
ASUS42 KRAH 281210
RWRRAH
NORTH CAROLINA WEATHER ROUNDUP
NATIONAL WEATHER SERVICE RALEIGH NC
800 AM EDT TUE JUN 28 2016

NOTE: "FAIR" INDICATES FEW OR NO CLOUDS BELOW 12,000 FEET WITH NO
SIGNIFICANT WEATHER AND/OR OBSTRUCTIONS TO VISIBILITY.

NCZ001-053-055-056-065-067-281300-
WESTERN NORTH CAROLINA

CITY           SKY/WX    TMP DP  RH WIND       PRES   REMARKS
ASHEVILLE      CLOUDY    70  66  87 N5        30.09S
JEFFERSON      LGT RAIN  65  62  91 NW5       30.13R
MORGANTON      CLOUDY    70  70 100 CALM      30.08R
HICKORY        CLOUDY    71  71 100 W3        30.02S FOG
RUTHERFORDTON  CLOUDY    69  69 100 CALM      30.04R
MOUNT AIRY     CLOUDY    72  70  94 CALM      30.04R FOG
BOONE          DRIZZLE   66  65  98 W7        30.14R
$$

NCZ021-022-025-041-071-084-088-281300-
CENTRAL NORTH CAROLINA

CITY           SKY/WX    TMP DP  RH WIND       PRES   REMARKS
CHARLOTTE      CLOUDY    74  71  91 W3        30.01S
GREENSBORO     CLOUDY    73  72  96 S3        30.00R
WINSTON-SALEM  CLOUDY    72  69  90 W3        30.01S
RALEIGH-DURHAM LGT RAIN  75  71  87 W7        29.99S
FORT BRAGG     CLOUDY    77  71  83 SW6       29.98S
FAYETTEVILLE   CLOUDY    76  71  85 SE6       29.98S
BURLINGTON     CLOUDY    73  72  96 CALM      29.99S
LAURINBURG     CLOUDY    76  72  87 SW3       30.00S
$$

NCZ011-015-027-028-043-044-047-080-103-281300-
NORTHEASTERN NORTH CAROLINA

CITY           SKY/WX    TMP DP  RH WIND       PRES   REMARKS
ROCKY MT-WILSO PTSUNNY   75  72  90 S6        29.99S
GREENVILLE     SUNNY     77  72  83 SW3       30.02S
WASHINGTON     CLOUDY    75  71  88 SW3       30.00F
ELIZABETH CITY MOSUNNY   77  72  84 S12       29.99S
MANTEO         SUNNY     76  73  88 SW10      30.00F
CAPE HATTERAS  MOSUNNY   80  70  71 SW7       30.01S
$$

NCZ078-087-090-091-093-098-101-281300-
SOUTHEASTERN NORTH CAROLINA

CITY           SKY/WX    TMP DP  RH WIND       PRES   REMARKS
LUMBERTON      CLOUDY    74  71  91 CALM      29.98S
GOLDSBORO      CLOUDY    76  76 100 S6        29.98F
KINSTON        CLOUDY    75  72  88 SW3       30.01S
KENANSVILLE    MOSUNNY   74  70  88 CALM      30.01R
NEW BERN       CLOUDY    77  72  84 CALM      30.02S
CHERRY POINT   CLOUDY    77  72  84 CALM      30.02R
BEAUFORT       PTSUNNY   80  72  76 S8        30.01R
JACKSONVILLE   MOSUNNY   75  71  87 CALM      30.00R
WILMINGTON     CLOUDY    77  72  84 CALM      30.00R
$$





USA.gov is the U.S. government's official web portal to all federal, state and local government web resources and services.